Wind_Speed
3 3 4 4 4 4 3 4 4 4 4 4 4 4 4 4 4 5 5 6 6 6 6 6 6 6 6 6 6 6 6 5 4 3 3 2 2 3 4 4 5 7 8
3 4 4 4 5 5 6 7 7 7 7 6 6 6 6 6 7 7 7 7 8 8 8 8 8 7 7 7 6 6 5 5 4 3 2 1 0 1 2 3 4 7 8
4 5 5 6 7 8 9 9 9 9 9 9 9 9 9 9 9 9 9 10 10 10 10 9 9 9 8 8 7 6 6 5 4 3 2 2 2 2 2 3 5 7 7
5 6 7 8 9 10 11 11 11 11 11 11 11 11 11 10 10 11 11 11 11 10 10 10 10 10 9 9 8 8 8 7 6 5 4 4 3 3 3 3 4 5 6
6 8 9 10 12 12 12 13 12 12 12 12 12 12 12 11 11 11 12 11 11 11 11 11 10 10 10 10 10 10 10 9 8 7 6 5 4 5 5 4 4 4 5
8 9 10 12 13 14 14 14 14 13 13 12 12 12 12 12 12 11 11 11 11 11 11 11 11 11 11 11 11 11 11 11 11 10 9 8 7 6 7 6 6 5 5
9 11 12 13 14 15 16 16 15 15 14 14 13 13 13 13 13 13 12 12 12 12 12 13 13 13 13 13 13 13 13 13 13 12 12 11 10 9 8 8 7 7 7
11 13 14 15 16 17 18 18 18 17 17 17 16 16 15 15 15 15 15 14 14 14 14 14 14 14 14 14 14 14 14 14 14 14 14 15 14 12 11 10 9 9 8
13 14 16 17 18 19 20 21 21 21 21 20 20 20 19 19 18 18 17 17 17 17 16 16 15 15 15 15 15 15 15 15 15 16 16 18 18 16 14 13 12 11 11
15 16 17 18 20 20 22 22 22 23 23 23 23 23 23 22 21 20 20 19 19 18 17 17 17 16 16 15 15 16 16 16 15 16 18 19 20 20 18 16 14 13 13
17 18 19 19 20 21 22 23 24 24 24 24 24 24 24 24 23 21 19 19 19 19 19 18 18 18 17 17 16 16 16 17 16 16 16 19 21 22 22 20 18 16 15
20 20 21 20 21 22 22 23 24 24 24 23 23 23 21 20 20 19 19 19 19 19 19 18 19 19 19 18 17 17 17 17 17 17 17 18 20 22 23 23 22 20 19
20 21 21 20 20 20 20 22 23 24 23 21 20 19 18 17 17 18 18 18 18 18 19 19 19 19 20 19 18 18 18 18 18 18 17 18 20 22 24 26 25 24 22
20 21 20 20 18 18 19 20 21 20 20 19 19 18 18 17 17 17 18 18 18 18 19 19 20 20 19 18 18 18 17 18 17 17 18 19 20 21 24 26 28 28 27
20 19 19 18 17 18 18 18 18 17 18 18 19 20 20 19 19 19 19 19 20 20 20 20 21 21 21 20 19 18 18 18 18 17 18 19 20 21 23 25 28 30 30
18 18 17 16 16 15 16 17 16 16 17 17 18 19 20 20 20 21 20 20 20 20 20 21 21 21 21 21 20 19 19 19 19 19 19 19 18 19 22 25 28 30 32
16 16 15 14 13 13 13 14 14 15 16 17 17 18 20 20 21 21 21 21 21 21 21 21 22 21 21 21 21 21 21 21 20 20 20 20 20 19 20 24 27 30 32
15 14 12 11 11 11 12 13 14 14 15 16 17 18 20 20 21 21 21 21 22 22 22 22 22 21 21 21 21 22 22 22 22 22 22 22 21 22 21 22 25 28 31
13 12 10 9 9 10 11 12 13 14 15 15 16 17 18 19 20 20 20 21 21 21 21 22 22 22 22 22 22 22 22 23 23 23 23 24 24 23 23 23 25 26 29
9 8 6 7 8 8 10 11 12 13 14 15 15 17 17 18 19 19 19 20 20 20 20 20 21 22 22 22 22 23 23 23 24 24 24 25 25 25 25 25 25 27 28
5 4 4 5 6 8 10 10 11 12 13 14 15 16 17 17 17 18 18 18 18 18 18 19 20 21 21 21 21 22 23 23 24 24 25 25 26 27 26 26 26 28 28
1 2 4 5 6 8 9 10 12 13 14 15 16 16 17 17 17 17 17 17 17 17 17 18 18 19 20 20 21 21 23 24 24 24 25 26 27 28 28 28 28 29 30
1 3 4 6 7 9 10 11 13 14 15 15 16 16 17 17 17 17 17 17 16 16 17 17 18 19 19 20 20 21 22 24 24 24 25 26 27 28 28 29 29 29 31
2 5 6 8 9 10 12 13 15 16 16 17 17 17 18 18 18 18 17 17 17 17 18 18 19 20 20 21 21 21 22 23 24 25 25 26 27 27 28 29 30 30 31
5 7 8 10 11 12 14 15 17 17 18 18 19 19 19 19 18 19 19 19 19 20 20 21 21 21 22 22 23 23 24 25 26 26 27 27 28 28 30 30 30 30 31
7 9 10 11 12 14 15 17 18 19 20 21 22 22 22 21 20 20 21 22 22 22 23 24 24 24 24 25 26 26 26 27 28 29 29 30 31 31 31 32 31 31 31
Wind_Direction
32 37 36 37 35 21 2 347 340 332 326 319 312 309 309 308 309 313 317 321 324 329 332 335 339 345 352 356 356 358 359 1 9 18 31 46 66 77 80 93 119 123 125
1 13 13 9 2 351 339 331 325 323 319 314 309 303 301 299 299 302 304 306 308 312 316 319 323 326 330 333 333 335 337 339 340 346 354 348 118 108 97 105 121 129 130
344 351 351 346 341 337 333 328 323 320 316 312 308 303 300 299 299 299 300 300 299 300 304 307 311 313 314 315 314 311 311 314 312 307 298 260 218 189 150 126 124 127 135
334 335 337 337 334 330 328 326 322 318 315 311 307 303 300 299 299 298 299 299 297 297 299 300 301 302 303 302 300 297 292 293 289 283 270 255 223 211 201 163 133 136 144
328 329 331 330 328 327 325 323 319 317 315 312 307 302 298 296 296 295 294 294 294 295 297 298 298 297 296 293 291 288 283 280 273 270 262 255 233 218 213 194 168 155 155
323 325 326 325 324 321 319 318 316 314 313 311 307 303 298 295 292 289 289 289 290 290 290 292 292 293 292 289 287 284 279 274 266 264 260 253 241 227 217 207 193 177 171
327 324 322 320 317 314 312 311 309 309 307 305 302 299 296 292 290 288 286 283 283 283 283 284 286 288 289 288 285 282 278 275 265 258 253 250 241 231 222 213 205 195 186
324 319 317 313 309 306 305 305 305 303 301 298 295 293 290 286 285 284 281 278 277 277 278 279 281 283 286 286 284 280 277 273 269 257 253 248 240 234 227 217 212 208 201
317 312 309 304 300 298 297 297 298 297 295 293 290 289 286 280 278 278 275 274 274 273 273 273 275 279 282 282 281 278 276 273 270 261 253 248 239 234 230 223 216 214 211
314 309 306 302 297 293 291 291 292 292 291 288 286 285 282 279 276 274 272 271 270 268 268 269 270 273 278 279 280 277 273 271 268 264 254 248 238 233 230 227 222 217 215
306 305 305 301 296 292 290 290 290 290 291 288 284 284 281 278 277 275 276 275 272 266 266 268 269 270 273 275 275 274 272 268 266 266 258 247 239 233 230 227 225 222 219
303 304 304 299 294 290 288 288 287 289 290 287 286 288 289 284 283 280 283 282 279 271 267 269 270 270 272 271 270 270 270 269 265 264 261 253 243 235 231 228 226 225 223
301 303 303 302 298 293 291 292 291 291 288 289 292 292 293 291 289 285 287 287 286 281 274 272 273 272 272 270 269 269 270 267 263 261 257 253 247 238 233 231 228 226 225
301 302 302 301 298 294 294 295 294 291 287 290 291 293 293 294 292 288 285 286 287 288 285 281 281 279 277 274 271 270 268 265 260 259 256 252 250 243 238 234 230 228 226
301 300 299 298 296 297 296 296 295 292 293 294 291 290 292 293 290 287 286 285 285 286 286 283 281 281 281 280 278 275 271 264 262 262 259 255 253 250 243 238 233 229 227
295 295 295 296 296 298 300 303 300 298 297 296 296 294 294 294 292 291 289 287 286 284 282 281 281 281 281 281 278 276 273 268 265 264 259 256 256 255 248 242 237 233 229
294 295 295 298 296 300 304 307 307 305 301 302 303 300 298 297 294 292 291 289 287 284 284 283 282 282 281 280 278 276 273 268 266 264 261 255 254 258 255 247 241 235 233
288 292 298 299 300 304 309 311 311 310 308 307 306 303 301 300 297 295 293 292 289 287 286 284 284 284 281 279 278 276 273 270 267 264 262 259 255 256 257 252 246 239 236
284 290 297 303 309 313 313 315 314 313 312 312 311 308 306 303 300 298 296 293 290 288 286 284 283 282 280 279 277 275 274 271 268 264 261 259 257 254 254 254 249 244 239
284 294 303 312 317 322 324 324 323 321 318 317 316 315 314 310 305 302 299 295 293 292 288 285 283 282 281 280 278 276 274 271 269 266 262 259 258 255 253 252 251 248 243
282 302 315 319 326 331 332 333 332 330 328 326 325 323 321 317 314 311 307 302 298 296 292 289 286 285 283 281 279 277 275 272 270 267 264 261 258 256 255 253 249 248 246
296 339 338 335 337 341 342 342 341 340 340 338 335 332 329 325 322 319 315 312 307 303 298 294 292 289 286 284 281 279 277 275 272 269 266 262 259 257 254 253 250 247 246
14 357 348 347 347 349 349 347 344 342 340 338 335 332 329 326 324 320 317 315 312 309 305 301 298 294 291 289 285 282 279 278 276 271 268 265 262 259 257 253 251 249 247
8 0 357 356 354 352 349 346 343 340 337 334 332 330 327 324 321 318 315 314 312 310 308 305 301 297 295 293 289 287 284 281 278 275 271 267 264 261 258 255 252 250 249
356 356 354 351 351 349 346 343 339 335 332 330 328 325 323 320 317 314 311 310 309 308 307 306 303 300 297 294 292 290 287 284 281 279 275 271 266 262 259 257 254 251 249
349 350 350 348 346 344 341 338 334 330 329 327 325 324 321 319 316 312 308 307 306 304 304 304 303 301 299 296 294 292 289 286 284 281 278 274 270 265 262 258 255 253 251
Height
5909 5909 5910 5910 5910 5911 5911 5911 5911 5911 5910 5910 5909 5909 5908 5908 5907 5907 5906 5906 5905 5905 5904 5904 5903 5902 5902 5901 5901 5900 5899 5899 5898 5898 5898 5898 5899 5899 5899 5899 5900 5900 5901
5909 5909 5909 5910 5910 5911 5911 5911 5911 5910 5910 5910 5909 5909 5908 5907 5907 5906 5906 5905 5905 5904 5904 5903 5903 5902 5902 5901 5901 5900 5900 5899 5899 5899 5899 5899 5899 5900 5900 5900 5901 5901 5902
5909 5909 5909 5909 5910 5910 5910 5910 5910 5910 5909 5909 5909 5908 5907 5907 5906 5906 5905 5904 5904 5903 5903 5902 5902 5901 5901 5901 5900 5900 5900 5900 5899 5899 5899 5899 5900 5900 5900 5901 5901 5902 5904
5909 5909 5909 5909 5909 5909 5909 5909 5909 5909 5908 5908 5907 5907 5906 5906 5905 5905 5904 5903 5903 5902 5901 5901 5900 5900 5900 5899 5899 5899 5899 5899 5899 5899 5899 5899 5900 5901 5901 5901 5902 5903 5904
5909 5908 5908 5908 5908 5908 5908 5908 5908 5907 5907 5906 5906 5905 5905 5904 5904 5903 5903 5902 5901 5901 5900 5899 5899 5898 5898 5898 5898 5898 5898 5899 5899 5899 5899 5899 5900 5901 5901 5902 5903 5903 5905
5908 5908 5908 5908 5908 5907 5907 5907 5907 5906 5906 5905 5904 5904 5903 5902 5902 5901 5901 5900 5900 5899 5898 5898 5897 5897 5897 5896 5896 5896 5897 5897 5898 5898 5899 5899 5900 5900 5901 5902 5903 5904 5905
5907 5907 5907 5907 5907 5906 5906 5905 5905 5904 5904 5903 5902 5902 5901 5900 5900 5899 5899 5898 5897 5897 5896 5896 5895 5895 5895 5895 5894 5894 5894 5895 5896 5896 5897 5898 5899 5900 5901 5901 5903 5903 5905
5905 5905 5905 5905 5904 5904 5904 5903 5903 5902 5901 5901 5900 5899 5899 5898 5897 5897 5896 5895 5895 5894 5894 5893 5893 5892 5892 5892 5892 5892 5892 5892 5893 5894 5896 5896 5897 5898 5899 5901 5902 5903 5904
5903 5903 5903 5902 5902 5901 5901 5900 5900 5899 5898 5897 5897 5896 5895 5895 5894 5893 5893 5892 5892 5892 5891 5891 5890 5890 5890 5889 5889 5889 5889 5889 5890 5891 5893 5893 5895 5896 5898 5899 5901 5902 5903
5900 5900 5900 5899 5898 5898 5897 5897 5896 5895 5894 5893 5892 5891 5891 5890 5890 5889 5889 5888 5888 5888 5888 5888 5887 5887 5887 5887 5886 5886 5886 5886 5887 5887 5889 5889 5891 5893 5895 5897 5899 5901 5902
5897 5897 5896 5896 5895 5894 5894 5892 5891 5890 5889 5888 5887 5886 5886 5886 5885 5884 5884 5884 5884 5884 5885 5885 5884 5884 5884 5883 5883 5883 5883 5883 5883 5884 5885 5885 5887 5889 5892 5895 5897 5899 5901
5893 5892 5892 5892 5891 5890 5889 5888 5886 5885 5884 5883 5882 5882 5881 5880 5880 5880 5880 5880 5880 5880 5881 5881 5880 5880 5880 5880 5880 5880 5880 5880 5880 5881 5882 5882 5883 5886 5889 5891 5894 5896 5899
5889 5889 5888 5887 5886 5885 5884 5883 5881 5881 5880 5879 5878 5877 5877 5877 5876 5876 5876 5876 5876 5876 5876 5876 5876 5876 5876 5876 5876 5877 5876 5877 5877 5877 5878 5878 5880 5882 5884 5887 5890 5893 5896
5885 5885 5884 5883 5882 5881 5880 5879 5877 5876 5876 5876 5875 5874 5874 5873 5873 5873 5872 5872 5872 5872 5872 5872 5872 5871 5871 5871 5872 5872 5872 5873 5873 5873 5874 5874 5876 5878 5880 5883 5886 5889 5892
5881 5881 5880 5879 5879 5878 5876 5875 5874 5873 5873 5873 5872 5871 5870 5870 5869 5869 5868 5868 5868 5867 5867 5867 5867 5867 5867 5867 5867 5868 5868 5868 5868 5869 5871 5872 5872 5874 5876 5878 5881 5884 5887
5877 5877 5876 5876 5875 5874 5873 5872 5871 5870 5870 5868 5868 5867 5866 5865 5865 5864 5864 5864 5863 5863 5863 5862 5862 5862 5862 5862 5863 5863 5864 5864 5865 5865 5866 5868 5869 5870 5871 5873 5876 5879 5882
5874 5873 5873 5873 5872 5872 5871 5870 5869 5868 5867 5865 5865 5864 5862 5861 5860 5859 5859 5859 5859 5858 5858 5857 5857 5857 5857 5857 5858 5858 5858 5859 5860 5860 5861 5863 5864 5865 5867 5869 5871 5874 5877
5871 5871 5871 5871 5870 5869 5868 5867 5866 5865 5864 5863 5861 5860 5858 5857 5856 5855 5855 5854 5853 5853 5853 5852 5852 5852 5852 5852 5852 5852 5853 5854 5855 5855 5856 5858 5859 5861 5862 5863 5865 5868 5871
5869 5869 5869 5869 5868 5867 5866 5865 5864 5863 5861 5860 5858 5857 5855 5854 5852 5851 5850 5849 5848 5848 5848 5847 5847 5847 5847 5847 5847 5847 5848 5848 5849 5850 5851 5852 5854 5855 5857 5858 5860 5862 5865
5867 5867 5867 5867 5866 5866 5865 5864 5862 5861 5859 5858 5856 5854 5852 5850 5849 5847 5846 5845 5844 5844 5843 5843 5842 5842 5842 5842 5841 5842 5842 5842 5843 5844 5845 5847 5848 5849 5851 5853 5855 5857 5859
5866 5866 5866 5865 5865 5864 5863 5862 5860 5859 5857 5856 5854 5852 5850 5848 5846 5844 5843 5842 5840 5840 5839 5838 5837 5837 5836 5836 5836 5836 5836 5836 5837 5838 5839 5840 5842 5843 5845 5847 5849 5851 5853
5865 5865 5865 5864 5864 5863 5861 5860 5858 5857 5855 5853 5851 5849 5847 5845 5843 5842 5840 5839 5837 5836 5835 5834 5833 5832 5831 5831 5831 5831 5831 5831 5832 5832 5833 5834 5835 5837 5839 5840 5842 5844 5847
5864 5864 5864 5863 5862 5861 5860 5858 5857 5855 5853 5852 5850 5848 5846 5843 5841 5839 5837 5836 5834 5833 5831 5830 5829 5828 5827 5826 5826 5825 5825 5825 5825 5826 5826 5827 5828 5829 5831 5833 5835 5837 5840
5863 5863 5862 5861 5860 5859 5857 5856 5855 5853 5852 5850 5848 5846 5844 5841 5839 5837 5835 5833 5831 5830 5828 5826 5825 5824 5822 5821 5820 5820 5819 5818 5818 5819 5820 5820 5821 5822 5823 5825 5828 5830 5832
5862 5861 5860 5859 5858 5857 5855 5854 5852 5851 5849 5847 5845 5843 5841 5839 5837 5834 5832 5830 5828 5826 5824 5822 5821 5819 5818 5816 5815 5814 5813 5812 5811 5812 5812 5813 5814 5815 5816 5818 5820 5822 5824
5860 5859 5858 5857 5856 5855 5853 5852 5850 5848 5846 5844 5842 5839 5837 5835 5833 5831 5829 5826 5824 5822 5820 5818 5816 5814 5812 5810 5808 5807 5806 5806 5805 5804 5804 5804 5805 5807 5808 5809 5811 5814 5816